Flag for Canada Weather past 2 weeks in Saskatoon, Saskatchewan, Canada

Now
54 °F

Passing clouds.


Feels Like: 52 °F
Forecast: 55 / 79 °F
Wind: 6 mph from East

Location: Saskatoon Weather Station

Current Time: Sep 2, 2015 at 1:27:38 AM

Latest Report: Sep 2, 2015 at 1:00 AM


Visibility: 15 mi

Pressure: 29.76 "Hg

Humidity: 67%

Dew point: 43 °F

Location of SaskatoonLocation

Historic Weather in Saskatoon — Graph

°F

Saskatoon temperature yesterday

Maximum temperature yesterday: 81 °F (at 3:00 PM)
Minimum temperature yesterday: 50 °F (at 3:00 AM)
Average temperature yesterday: 64 °F

Past Weeks' High & Low Weather Summary

 TemperatureHumidityPressure
High84 °F (Aug 29, 2:00 PM)100% (Aug 18, 5:00 AM)30.19 "Hg (Aug 18, 5:00 AM)
Low36 °F (Aug 23, 4:00 AM)22% (Aug 31, 4:00 PM)29.54 "Hg (Aug 31, 5:00 AM)
Average62 °F67%29.88 "Hg
* Reported Midnight between Aug 17 and Aug 18 — Midnight between Sep 1 and Sep 2, Saskatoon, Weather by CustomWeather, © 2015

Note: Actual official high and low records may vary slightly from our data, if they occured in-between our weather recording intervals... More about our weather records

Advertising

Saskatoon weather history for previous 24 hours

 ConditionsComfort  
Time TempWeatherWind HumidityBarometerVisibility
12:00 AM
Wed, Sep 2
55 °FPassing clouds.6 mph67%29.76 "Hg15 mi
11:00 PM
Tue, Sep 1
55 °FPassing clouds.6 mph67%29.76 "Hg15 mi
10:00 PM57 °FPassing clouds.5 mph55%29.77 "Hg15 mi
9:00 PM61 °FPassing clouds.8 mph52%29.76 "Hg15 mi
8:00 PM64 °FPassing clouds.5 mph52%29.75 "Hg15 mi
7:00 PM72 °FScattered clouds.7 mph44%29.72 "Hg15 mi
6:00 PM77 °FScattered clouds.9 mph32%29.70 "Hg15 mi
5:00 PM79 °FScattered clouds.12 mph26%29.68 "Hg15 mi
4:00 PM81 °FScattered clouds.18 mph24%29.67 "Hg15 mi
3:00 PM81 °FPassing clouds.21 mph24%29.65 "Hg15 mi
2:00 PM79 °FPassing clouds.21 mph24%29.65 "Hg15 mi
1:00 PM77 °FPassing clouds.16 mph32%29.65 "Hg15 mi
12:00 PM75 °FPassing clouds.17 mph34%29.64 "Hg15 mi
11:00 AM73 °FPassing clouds.22 mph36%29.64 "Hg15 mi
10:00 AM68 °FPassing clouds.21 mph43%29.64 "Hg15 mi
9:00 AM61 °FPassing clouds.16 mph55%29.65 "Hg15 mi
8:00 AM55 °FPassing clouds.13 mph67%29.67 "Hg15 mi
7:00 AM54 °FScattered clouds.15 mph72%29.67 "Hg15 mi
6:00 AM50 °FPartly cloudy.7 mph76%29.65 "Hg15 mi
5:00 AM50 °FPartly cloudy.8 mph82%29.66 "Hg15 mi
4:00 AM50 °FPassing clouds.7 mph82%29.68 "Hg15 mi
3:00 AM50 °FPassing clouds.7 mph76%29.67 "Hg15 mi
2:00 AM52 °FPassing clouds.5 mph72%29.68 "Hg15 mi
1:00 AM52 °FPassing clouds.6 mph72%29.69 "Hg15 mi
Weather by CustomWeather, © 2015

See weather overviewHow to use our weather pages